CCA6208 KPUW-KCPC

Flight info

Callsign CCA6208
Flight time N/A
Altitude 33000
Route FINUT Q148 WEDAK Q152 ONL J148 MCW J16 BAE J68 FNT Q822 HOZIR Q917 WOZEE Q818 GAYEL J95 DPK Q450 JFK Y486 OWENZ Y497 DRIFT Q439 KALDA Q97 ELLDE
Aircraft B772/H-V/N

Departure

Time 2026-05-07 12:52
Airport Pullman-Moscow Regional Airport (KPUW)

Arrival

Time N/A
Airport Columbus County Municipal Airport (KCPC)
Time Latitude Longitude Altitude Speed Heading
2026-05-07 12:49 46.74238 -117.11811 2569 ft 28 kts 252°
2026-05-07 12:50 46.74180 -117.12049 2569 ft 22 kts 250°
2026-05-07 12:50 46.74135 -117.12229 2569 ft 16 kts 250°
2026-05-07 12:50 46.74101 -117.12295 2569 ft 1 kts 184°
2026-05-07 12:50 46.74090 -117.12291 2569 ft 6 kts 159°
2026-05-07 12:51 46.74076 -117.12233 2569 ft 0 kts 68°
2026-05-07 12:51 46.74076 -117.12232 2569 ft 0 kts 68°
2026-05-07 12:51 46.74099 -117.12134 2569 ft 38 kts 72°
2026-05-07 12:52 46.74301 -117.11276 2569 ft 138 kts 70°
2026-05-07 12:52 46.74711 -117.09611 2959 ft 195 kts 72°
2026-05-07 12:52 46.74840 -117.07458 3734 ft 235 kts 98°
2026-05-07 12:52 46.74450 -117.05240 5406 ft 221 kts 105°
2026-05-07 12:53 46.73889 -117.03103 6291 ft 233 kts 110°
2026-05-07 12:53 46.73201 -117.00825 6759 ft 257 kts 112°
2026-05-07 12:53 46.72430 -116.98369 7289 ft 276 kts 113°
2026-05-07 12:53 46.71628 -116.95775 7979 ft 288 kts 112°
2026-05-07 12:54 46.70787 -116.92983 8634 ft 304 kts 111°
2026-05-07 12:54 46.69964 -116.90186 9561 ft 306 kts 111°
2026-05-07 12:54 46.69130 -116.87294 10466 ft 314 kts 110°
2026-05-07 12:54 46.68280 -116.84311 11212 ft 324 kts 110°
2026-05-07 12:55 46.67412 -116.81236 11990 ft 332 kts 110°
2026-05-07 12:55 46.66515 -116.78036 12552 ft 350 kts 110°
2026-05-07 12:55 46.65572 -116.74658 13066 ft 370 kts 110°
2026-05-07 12:55 46.64578 -116.71092 13564 ft 390 kts 110°
2026-05-07 12:56 46.63534 -116.67343 14128 ft 407 kts 109°
2026-05-07 12:56 46.62466 -116.63501 14790 ft 420 kts 109°
2026-05-07 12:56 46.61369 -116.59492 15550 ft 430 kts 109°
2026-05-07 12:56 46.60277 -116.55400 16346 ft 438 kts 108°
2026-05-07 12:57 46.59158 -116.51251 17145 ft 445 kts 108°
2026-05-07 12:57 46.58012 -116.47037 17933 ft 451 kts 108°
2026-05-07 12:57 46.56843 -116.42774 18719 ft 457 kts 108°
2026-05-07 12:57 46.55646 -116.38428 19480 ft 464 kts 108°
2026-05-07 12:58 46.54435 -116.34051 20200 ft 470 kts 108°
2026-05-07 12:58 46.53209 -116.29630 20911 ft 476 kts 108°
2026-05-07 12:58 46.51977 -116.25198 21596 ft 482 kts 108°
2026-05-07 12:58 46.50695 -116.20602 22300 ft 487 kts 108°
2026-05-07 12:59 46.49428 -116.16065 22948 ft 493 kts 107°
2026-05-07 12:59 46.48114 -116.11370 23598 ft 499 kts 107°
2026-05-07 12:59 46.46802 -116.06691 24219 ft 504 kts 108°
2026-05-07 12:59 46.45464 -116.01933 24807 ft 511 kts 107°
2026-05-07 13:00 46.44116 -115.97141 25442 ft 516 kts 107°
2026-05-07 13:00 46.42763 -115.92348 26055 ft 521 kts 107°
2026-05-07 13:00 46.41379 -115.87453 26644 ft 527 kts 107°
2026-05-07 13:00 46.39982 -115.82523 27241 ft 532 kts 107°
2026-05-07 13:01 46.38568 -115.77540 27820 ft 537 kts 107°
2026-05-07 13:01 46.37137 -115.72507 28407 ft 541 kts 107°
2026-05-07 13:01 46.35693 -115.67443 28946 ft 546 kts 107°
2026-05-07 13:01 46.34231 -115.62322 29460 ft 551 kts 107°
2026-05-07 13:02 46.32755 -115.57166 29972 ft 556 kts 106°
2026-05-07 13:02 46.31287 -115.52048 30455 ft 559 kts 106°
2026-05-07 13:02 46.29784 -115.46821 30922 ft 563 kts 106°
2026-05-07 13:02 46.28280 -115.41598 31492 ft 563 kts 107°
2026-05-07 13:03 46.26765 -115.36349 31993 ft 564 kts 107°
2026-05-07 13:03 46.25246 -115.31098 32436 ft 565 kts 107°
2026-05-07 13:03 46.23727 -115.25860 32913 ft 565 kts 108°
2026-05-07 13:03 46.22229 -115.20701 33128 ft 563 kts 108°
2026-05-07 13:04 46.19203 -115.10318 33059 ft 558 kts 108°
2026-05-07 13:04 46.16182 -114.99994 33052 ft 560 kts 108°
2026-05-07 13:05 46.13133 -114.89619 33052 ft 560 kts 108°
2026-05-07 13:05 46.10098 -114.79334 33053 ft 559 kts 108°
2026-05-07 13:06 46.07046 -114.69033 33048 ft 557 kts 108°
2026-05-07 13:06 46.03995 -114.58771 33058 ft 557 kts 113°
2026-05-07 13:07 46.00923 -114.48460 33081 ft 569 kts 108°
2026-05-07 13:07 45.99402 -114.43259 33353 ft 557 kts 107°
2026-05-07 13:07 45.97873 -114.38143 33247 ft 556 kts 108°
2026-05-07 13:08 45.96322 -114.33024 33106 ft 559 kts 112°
2026-05-07 13:08 45.94755 -114.27868 33085 ft 566 kts 113°
2026-05-07 13:08 45.93165 -114.22647 33196 ft 564 kts 107°
2026-05-07 13:08 45.91627 -114.17587 33685 ft 548 kts 107°
2026-05-07 13:09 45.90136 -114.12608 33306 ft 547 kts 115°
2026-05-07 13:09 45.88862 -114.07382 33118 ft 557 kts 112°
2026-05-07 13:09 45.86948 -113.96841 33921 ft 510 kts 108°
2026-05-07 13:10 45.86227 -113.92092 34691 ft 479 kts 103°
2026-05-07 13:10 45.85557 -113.87445 34662 ft 473 kts 97°
2026-05-07 13:10 45.84891 -113.82849 34392 ft 468 kts 97°
2026-05-07 13:10 45.84212 -113.78274 34052 ft 471 kts 102°
2026-05-07 13:11 45.83526 -113.73728 33783 ft 459 kts 104°
2026-05-07 13:11 45.82847 -113.69287 33473 ft 451 kts 102°
2026-05-07 13:11 45.82170 -113.64904 33221 ft 452 kts 94°
2026-05-07 13:11 45.81479 -113.60438 33135 ft 462 kts 94°
2026-05-07 13:12 45.80133 -113.51311 33349 ft 460 kts 99°
2026-05-07 13:12 45.78810 -113.42470 33186 ft 451 kts 98°
2026-05-07 13:13 45.77470 -113.33735 33123 ft 449 kts 99°
2026-05-07 13:13 45.76110 -113.24975 33103 ft 452 kts 99°
2026-05-07 13:14 45.74745 -113.16249 33104 ft 448 kts 101°
2026-05-07 13:14 45.73384 -113.07611 33088 ft 444 kts 94°
2026-05-07 13:15 45.71991 -112.98810 33082 ft 465 kts 94°
2026-05-07 13:15 45.71270 -112.94266 33174 ft 465 kts 105°
2026-05-07 13:15 45.70561 -112.89827 33258 ft 459 kts 108°
2026-05-07 13:16 45.69836 -112.85310 33037 ft 469 kts 94°
2026-05-07 13:16 45.69100 -112.80709 33072 ft 480 kts 110°
2026-05-07 13:16 45.68341 -112.75982 33076 ft 492 kts 107°
2026-05-07 13:16 45.67826 -112.72793 33089 ft 500 kts 97°
2026-05-07 13:17 45.66234 -112.62955 33072 ft 516 kts 95°
2026-05-07 13:17 45.65413 -112.57899 33052 ft 527 kts 104°
2026-05-07 13:17 45.64570 -112.52730 33069 ft 538 kts 102°
2026-05-07 13:18 45.62569 -112.40526 33045 ft 542 kts 96°
2026-05-07 13:18 45.61141 -112.31867 33055 ft 534 kts 96°
2026-05-07 13:19 45.59436 -112.21576 33050 ft 530 kts 96°
2026-05-07 13:19 45.57739 -112.11401 33048 ft 530 kts 96°
2026-05-07 13:20 45.56020 -112.01160 33049 ft 530 kts 96°
2026-05-07 13:20 45.54291 -111.90915 33045 ft 530 kts 96°
2026-05-07 13:21 45.52553 -111.80677 33044 ft 530 kts 96°
2026-05-07 13:21 45.50799 -111.70404 33039 ft 546 kts 103°
2026-05-07 13:22 45.48959 -111.59695 33045 ft 563 kts 107°
2026-05-07 13:22 45.47127 -111.49115 33447 ft 520 kts 97°
2026-05-07 13:23 45.46294 -111.44304 33789 ft 499 kts 97°
2026-05-07 13:23 45.45458 -111.39499 33419 ft 497 kts 97°
2026-05-07 13:23 45.44622 -111.34703 33137 ft 499 kts 96°
2026-05-07 13:23 45.43782 -111.29902 33095 ft 499 kts 96°
2026-05-07 13:24 45.42097 -111.20310 33079 ft 498 kts 99°
2026-05-07 13:24 45.41266 -111.15602 33090 ft 486 kts 97°
2026-05-07 13:24 45.40450 -111.10991 33171 ft 474 kts 96°
2026-05-07 13:25 45.39646 -111.06443 33061 ft 482 kts 97°
2026-05-07 13:25 45.38818 -111.01791 33084 ft 486 kts 97°
2026-05-07 13:25 45.37147 -110.92430 33092 ft 489 kts 97°
2026-05-07 13:26 45.35473 -110.83100 33114 ft 491 kts 97°
2026-05-07 13:26 45.34612 -110.78320 33324 ft 483 kts 102°
2026-05-07 13:26 45.33798 -110.73801 33304 ft 483 kts 97°
2026-05-07 13:27 45.32962 -110.69192 33457 ft 474 kts 97°
2026-05-07 13:27 45.32130 -110.64578 33216 ft 481 kts 107°
2026-05-07 13:27 45.31305 -110.60068 33270 ft 467 kts 100°
2026-05-07 13:27 45.30481 -110.55548 33128 ft 473 kts 100°
2026-05-07 13:28 45.29643 -110.50963 33122 ft 486 kts 100°
2026-05-07 13:28 45.28797 -110.46347 33156 ft 493 kts 97°
2026-05-07 13:28 45.27028 -110.36731 33150 ft 512 kts 97°
2026-05-07 13:29 45.25192 -110.26807 33146 ft 525 kts 97°
2026-05-07 13:29 45.23324 -110.16758 33155 ft 527 kts 98°
2026-05-07 13:30 45.21446 -110.06710 33120 ft 528 kts 98°
2026-05-07 13:30 45.19559 -109.96671 33126 ft 530 kts 98°
2026-05-07 13:31 45.17656 -109.86597 33084 ft 535 kts 99°
2026-05-07 13:31 45.15703 -109.76315 33064 ft 541 kts 100°
2026-05-07 13:32 45.13739 -109.66027 33036 ft 540 kts 100°
2026-05-07 13:32 45.11767 -109.55755 33030 ft 539 kts 100°
2026-05-07 13:33 45.09794 -109.45536 33029 ft 539 kts 100°
2026-05-07 13:33 45.07803 -109.35272 33026 ft 539 kts 100°
2026-05-07 13:34 45.04800 -109.19899 33025 ft 539 kts 101°
2026-05-07 13:35 45.02802 -109.09730 33025 ft 540 kts 101°
2026-05-07 13:35 45.00782 -108.99511 33023 ft 539 kts 101°
2026-05-07 13:36 44.98798 -108.89283 33025 ft 540 kts 101°
2026-05-07 13:36 44.96749 -108.79061 33022 ft 541 kts 101°
2026-05-07 13:37 44.94674 -108.68825 33025 ft 541 kts 101°
2026-05-07 13:37 44.92601 -108.58615 33019 ft 541 kts 102°
2026-05-07 13:38 44.90559 -108.48373 33020 ft 540 kts 101°
2026-05-07 13:38 44.88626 -108.38195 33020 ft 541 kts 101°
2026-05-07 13:39 44.86660 -108.27983 33018 ft 541 kts 101°
2026-05-07 13:39 44.84669 -108.17744 33013 ft 540 kts 101°
2026-05-07 13:40 44.82669 -108.07516 33013 ft 541 kts 101°
2026-05-07 13:40 44.80738 -107.97276 32989 ft 540 kts 101°
2026-05-07 13:41 44.78792 -107.87111 32987 ft 540 kts 101°
2026-05-07 13:41 44.76800 -107.76891 32973 ft 540 kts 102°
2026-05-07 13:42 44.74807 -107.66762 32968 ft 541 kts 102°
2026-05-07 13:42 44.72785 -107.56542 32972 ft 541 kts 102°
2026-05-07 13:43 44.70757 -107.46350 32955 ft 541 kts 102°
2026-05-07 13:43 44.68718 -107.36156 32954 ft 541 kts 102°
2026-05-07 13:44 44.66683 -107.26037 32943 ft 541 kts 102°
2026-05-07 13:44 44.64622 -107.15839 32941 ft 541 kts 103°
2026-05-07 13:45 44.62557 -107.05671 32939 ft 541 kts 103°
2026-05-07 13:45 44.60481 -106.95502 32937 ft 541 kts 103°
2026-05-07 13:46 44.58409 -106.85406 32941 ft 541 kts 103°
2026-05-07 13:46 44.56315 -106.75253 32943 ft 541 kts 103°
2026-05-07 13:47 44.54209 -106.65093 32942 ft 541 kts 103°
2026-05-07 13:47 44.52111 -106.55016 32949 ft 541 kts 103°
2026-05-07 13:48 44.49992 -106.44896 32954 ft 542 kts 103°
2026-05-07 13:48 44.47863 -106.34771 32979 ft 542 kts 103°
2026-05-07 13:49 44.45717 -106.24619 33014 ft 543 kts 102°
2026-05-07 13:49 44.43573 -106.14528 33086 ft 542 kts 102°
2026-05-07 13:50 44.41411 -106.04398 33112 ft 544 kts 102°
2026-05-07 13:50 44.39234 -105.94251 33121 ft 543 kts 102°
2026-05-07 13:51 44.37064 -105.84182 33167 ft 543 kts 101°
2026-05-07 13:51 44.34873 -105.74062 33173 ft 543 kts 101°
2026-05-07 13:52 44.32712 -105.63973 33024 ft 536 kts 104°
2026-05-07 13:52 44.30527 -105.53932 32991 ft 544 kts 105°
2026-05-07 13:53 44.28294 -105.43863 32990 ft 547 kts 105°
2026-05-07 13:53 44.26044 -105.33742 32989 ft 545 kts 105°
2026-05-07 13:54 44.23791 -105.23654 32986 ft 544 kts 105°
2026-05-07 13:54 44.21427 -105.13673 32979 ft 538 kts 105°
2026-05-07 13:55 44.19070 -105.03843 32985 ft 538 kts 105°
2026-05-07 13:55 44.16693 -104.93944 32965 ft 539 kts 105°
2026-05-07 13:56 44.14304 -104.84028 32958 ft 540 kts 105°
2026-05-07 13:56 44.11959 -104.74108 32955 ft 539 kts 104°
2026-05-07 13:57 44.09629 -104.64181 32959 ft 538 kts 105°
2026-05-07 13:57 44.07280 -104.54356 32957 ft 538 kts 105°
2026-05-07 13:58 44.04892 -104.44465 32961 ft 538 kts 105°
2026-05-07 13:58 44.02513 -104.34665 32960 ft 538 kts 105°
2026-05-07 13:59 44.00107 -104.24802 32959 ft 538 kts 105°
2026-05-07 13:59 43.97690 -104.14941 32958 ft 539 kts 105°
2026-05-07 14:00 43.95265 -104.05088 32957 ft 540 kts 106°
2026-05-07 14:00 43.92842 -103.95284 32944 ft 543 kts 106°
2026-05-07 14:01 43.90380 -103.85366 32943 ft 545 kts 106°
2026-05-07 14:01 43.88436 -103.77569 32937 ft 545 kts 106°
2026-05-07 14:02 43.85953 -103.67640 32936 ft 545 kts 106°
2026-05-07 14:02 43.83464 -103.57733 32937 ft 545 kts 106°
2026-05-07 14:03 43.80963 -103.47824 32936 ft 543 kts 106°
2026-05-07 14:03 43.78467 -103.37970 32932 ft 542 kts 106°
2026-05-07 14:04 43.75955 -103.28099 32952 ft 543 kts 106°
2026-05-07 14:04 43.73434 -103.18233 32947 ft 544 kts 107°
2026-05-07 14:05 43.70901 -103.08361 32952 ft 544 kts 107°
2026-05-07 14:05 43.68358 -102.98495 32949 ft 544 kts 107°
2026-05-07 14:06 43.65857 -102.88830 32946 ft 545 kts 107°
2026-05-07 14:06 43.63253 -102.78809 32944 ft 544 kts 107°
2026-05-07 14:07 43.60687 -102.68972 32935 ft 544 kts 107°
2026-05-07 14:07 43.58128 -102.59206 32944 ft 544 kts 108°
2026-05-07 14:08 43.55550 -102.49405 32940 ft 544 kts 108°
2026-05-07 14:08 43.52959 -102.39600 32936 ft 543 kts 107°
2026-05-07 14:09 43.50367 -102.29825 32935 ft 542 kts 107°
2026-05-07 14:09 43.47768 -102.20067 32937 ft 542 kts 107°
2026-05-07 14:10 43.45152 -102.10282 32935 ft 543 kts 107°
2026-05-07 14:10 43.42553 -102.00603 32934 ft 543 kts 108°
2026-05-07 14:11 43.39927 -101.90860 32935 ft 544 kts 108°
2026-05-07 14:11 43.37284 -101.81097 32935 ft 544 kts 108°
2026-05-07 14:12 43.34634 -101.71342 32934 ft 545 kts 108°
2026-05-07 14:12 43.31962 -101.61550 32934 ft 545 kts 108°
2026-05-07 14:12 43.30636 -101.56705 32810 ft 541 kts 108°
2026-05-07 14:13 43.29330 -101.51939 32356 ft 542 kts 108°
2026-05-07 14:13 43.28037 -101.47232 31757 ft 546 kts 108°
2026-05-07 14:13 43.26634 -101.42136 31129 ft 549 kts 108°
2026-05-07 14:13 43.25462 -101.37885 30748 ft 548 kts 108°
2026-05-07 14:14 43.25372 -101.37561 30719 ft 548 kts 108°